Tracking 19574 objects as of 16-Feb-2019
HD Live streaming from Space Station
objects crossing your sky now

THORAD DELTA 1 DEB

Track THORAD DELTA 1 DEB now!
10-day predictions


NORAD ID: 42619
Int'l Code: 1974-089GL
Perigee: 979.8 km
Apogee: 1,273.6 km
Inclination: 102.1 °
Period: 107.7 minutes
Semi major axis: 7497 km
RCS: Unknown
Launch date: November 15, 1974
Source: United States (US)
Launch site: AIR FORCE WESTERN TEST RANGE (AFWTR)

Note: This is SATELLITE DEBRIS
aabbcc
Your satellite tracking list
Your tracking list is empty




NASA's NSSDC Master Catalog

Two Line Element Set (TLE):
1 42619U 74089GL  19046.46893601 +.00000383 +00000-0 +76125-3 0  9995
2 42619 102.0785 226.7952 0195934 237.1902 147.1642 13.37234723255344
Source of the keplerian elements: AFSPC